timestamp,surface_pressure_avg,surface_temp_avg,battery_voltage,lat,long
2018-05-02 00:00:00+00:00,359.7763,3.64,12.97,47.84626,-54.09684
2018-05-02 00:10:00+00:00,357.1313,3.93,12.97,47.84626,-54.09684
2018-05-02 00:20:00+00:00,355.8362,3.98,12.97,47.84626,-54.09684
2018-05-02 00:30:00+00:00,362.5079,3.4,12.97,47.84626,-54.09684
2018-05-02 00:40:00+00:00,369.3813,3.36,13.05,47.84626,-54.09684
2018-05-02 00:50:00+00:00,368.7847,3.78,13.05,47.84626,-54.09684
2018-05-02 01:00:00+00:00,369.6463,3.57,12.97,47.84626,-54.09684
2018-05-02 01:10:00+00:00,374.533,3.2,12.89,47.84626,-54.09684
2018-05-02 01:20:00+00:00,373.2979,3.38,12.97,47.84626,-54.09684
2018-05-02 01:30:00+00:00,369.3013,3.4,12.97,47.84626,-54.09684
2018-05-02 01:40:00+00:00,363.3379,3.3,12.97,47.84626,-54.09684
2018-05-02 01:50:00+00:00,365.7396,3.17,13.05,47.84626,-54.09684
2018-05-02 02:00:00+00:00,364.403,3.3,12.97,47.84626,-54.09684
2018-05-02 02:10:00+00:00,348.8329,3.49,12.89,47.84626,-54.09684
2018-05-02 02:20:00+00:00,340.3446,3.61,12.97,47.84626,-54.09684
2018-05-02 02:30:00+00:00,342.5513,3.59,12.97,47.84626,-54.09684
2018-05-02 02:40:00+00:00,336.128,3.6,12.97,47.84626,-54.09684
2018-05-02 02:50:00+00:00,327.2563,3.68,12.97,47.84626,-54.09684
2018-05-02 03:00:00+00:00,325.683,3.6,12.97,47.84626,-54.09684
2018-05-02 03:10:00+00:00,321.9664,3.69,12.89,47.84626,-54.09684
2018-05-02 03:20:00+00:00,310.258,3.79,12.97,47.84626,-54.09684
2018-05-02 03:30:00+00:00,297.6631,3.8,12.97,47.84626,-54.09684
2018-05-02 03:40:00+00:00,295.1514,3.8,12.97,47.84626,-54.09684
2018-05-02 03:50:00+00:00,284.468,3.8,12.97,47.84626,-54.09684
2018-05-02 04:00:00+00:00,267.0164,3.79,12.97,47.84626,-54.09684
2018-05-02 04:10:00+00:00,253.6281,3.9,12.89,47.84626,-54.09684
2018-05-02 04:20:00+00:00,249.8414,3.9,12.97,47.84626,-54.09684
2018-05-02 04:30:00+00:00,242.3898,3.94,12.97,47.84626,-54.09684
2018-05-02 04:40:00+00:00,233.4214,4.0,12.97,47.84626,-54.09684
2018-05-02 04:50:00+00:00,229.2447,4.0,12.97,47.84626,-54.09684
2018-05-02 05:00:00+00:00,221.8814,4.0,12.97,47.84626,-54.09684
2018-05-02 05:10:00+00:00,208.3698,4.0,12.89,47.84626,-54.09684
2018-05-02 05:20:00+00:00,202.9081,4.0,12.97,47.84626,-54.09684
2018-05-02 05:30:00+00:00,197.2915,4.0,12.97,47.84626,-54.09684
2018-05-02 05:40:00+00:00,184.2964,4.04,12.97,47.84626,-54.09684
2018-05-02 05:50:00+00:00,180.1798,4.0,12.97,47.84626,-54.09684
2018-05-02 06:00:00+00:00,184.3731,4.04,12.89,47.84626,-54.09684
2018-05-02 06:10:00+00:00,174.6748,4.1,12.89,47.84626,-54.09684
2018-05-02 06:20:00+00:00,167.3048,4.11,12.97,47.84626,-54.09684
2018-05-02 06:30:00+00:00,173.1331,4.14,12.97,47.84626,-54.09684
2018-05-02 06:40:00+00:00,174.6165,4.1,12.97,47.84626,-54.09684
2018-05-02 06:50:00+00:00,170.3232,4.15,12.97,47.84626,-54.09684
2018-05-02 07:00:00+00:00,173.9381,4.19,12.89,47.84626,-54.09684
2018-05-02 07:10:00+00:00,189.9865,4.2,12.89,47.84626,-54.09684
2018-05-02 07:20:00+00:00,192.5915,4.2,12.97,47.84626,-54.09684
2018-05-02 07:30:00+00:00,184.9865,4.36,12.97,47.84626,-54.09684
2018-05-02 07:40:00+00:00,191.9331,4.41,12.97,47.84626,-54.09684
2018-05-02 07:50:00+00:00,203.1931,4.41,12.97,47.84626,-54.09684
2018-05-02 08:00:00+00:00,203.2031,4.5,12.89,47.84626,-54.09684
2018-05-02 08:10:00+00:00,209.7598,4.6,12.89,47.84626,-54.09684
2018-05-02 08:20:00+00:00,212.3381,4.64,12.97,47.84626,-54.09684
2018-05-02 08:30:00+00:00,212.8398,4.7,12.97,47.84626,-54.09684
2018-05-02 08:40:00+00:00,221.5981,4.7,12.97,47.84626,-54.09684
2018-05-02 08:50:00+00:00,229.4247,4.7,12.97,47.84626,-54.09684
2018-05-02 09:00:00+00:00,228.6547,4.72,12.89,47.84626,-54.09684
2018-05-02 09:10:00+00:00,234.7181,4.8,12.89,47.84626,-54.09684
2018-05-02 09:20:00+00:00,243.1348,4.8,12.97,47.84626,-54.09684
2018-05-02 09:30:00+00:00,239.0781,4.82,12.97,47.84626,-54.09684
2018-05-02 09:40:00+00:00,235.1814,4.89,12.97,47.84626,-54.09684
2018-05-02 09:50:00+00:00,244.1998,4.89,12.97,47.84626,-54.09684
2018-05-02 10:00:00+00:00,248.1914,4.9,12.97,47.84626,-54.09684
2018-05-02 10:10:00+00:00,250.8415,4.9,12.89,47.84626,-54.09684
2018-05-02 10:20:00+00:00,256.4081,4.8,12.97,47.84626,-54.09684
2018-05-02 10:30:00+00:00,262.5031,4.73,12.97,47.84626,-54.09684
2018-05-02 10:40:00+00:00,261.413,4.8,13.05,47.84626,-54.09684
2018-05-02 10:50:00+00:00,265.0231,4.8,13.13,47.84626,-54.09684
2018-05-02 11:00:00+00:00,276.488,4.81,13.05,47.84626,-54.09684
2018-05-02 11:10:00+00:00,285.823,4.7,13.05,47.84626,-54.09684
2018-05-02 11:20:00+00:00,288.0147,4.8,13.21,47.84626,-54.09684
2018-05-02 11:30:00+00:00,299.3997,4.8,13.37,47.84626,-54.09684
2018-05-02 11:40:00+00:00,311.4963,4.67,13.44,47.84626,-54.09684
2018-05-02 11:50:00+00:00,316.6713,4.86,13.6,47.84626,-54.09684
2018-05-02 12:00:00+00:00,317.5313,4.9,13.53,47.84626,-54.09684
2018-05-02 12:10:00+00:00,330.0079,4.68,13.53,47.84626,-54.09684
2018-05-02 12:20:00+00:00,340.1213,4.6,13.6,47.84626,-54.09684
2018-05-02 12:30:00+00:00,337.498,4.65,13.6,47.84626,-54.09684
2018-05-02 12:40:00+00:00,337.5914,4.7,13.6,47.84626,-54.09684
2018-05-02 12:50:00+00:00,347.4479,4.7,13.68,47.84626,-54.09684
2018-05-02 13:00:00+00:00,349.903,4.7,13.68,47.84626,-54.09684
2018-05-02 13:10:00+00:00,342.103,4.78,13.76,47.84626,-54.09684
2018-05-02 13:20:00+00:00,347.1479,4.71,13.92,47.84626,-54.09684
2018-05-02 13:30:00+00:00,353.8212,4.75,14.0,47.84626,-54.09684
2018-05-02 13:40:00+00:00,348.9947,4.8,15.35,47.84626,-54.09684
2018-05-02 13:50:00+00:00,344.1462,4.87,14.48,47.84626,-54.09684
2018-05-02 14:00:00+00:00,344.6796,4.85,14.24,47.84626,-54.09684
2018-05-02 14:10:00+00:00,345.048,4.8,14.08,47.84626,-54.09684
2018-05-02 14:20:00+00:00,339.4747,4.84,15.99,47.84626,-54.09684
2018-05-02 14:30:00+00:00,332.7196,4.9,15.83,47.84626,-54.09684
2018-05-02 14:40:00+00:00,328.3846,4.99,14.88,47.84626,-54.09684
2018-05-02 14:50:00+00:00,325.498,4.92,14.32,47.84626,-54.09684
2018-05-02 15:00:00+00:00,324.6663,4.9,14.16,47.84626,-54.09684
2018-05-02 15:10:00+00:00,317.6564,4.97,14.0,47.84626,-54.09684
2018-05-02 15:20:00+00:00,312.058,5.0,14.0,47.84626,-54.09684
2018-05-02 15:30:00+00:00,309.8046,5.0,14.0,47.84626,-54.09684
2018-05-02 15:40:00+00:00,306.4263,5.1,14.08,47.84626,-54.09684
2018-05-02 15:50:00+00:00,295.4763,5.16,14.08,47.84626,-54.09684
2018-05-02 16:00:00+00:00,287.5214,5.2,14.0,47.84626,-54.09684
2018-05-02 16:10:00+00:00,281.5497,5.13,13.84,47.84626,-54.09684
2018-05-02 16:20:00+00:00,270.6064,5.18,14.0,47.84626,-54.09684
2018-05-02 16:30:00+00:00,258.043,5.19,14.08,47.84626,-54.09684
2018-05-02 16:40:00+00:00,253.4548,5.2,14.16,47.84626,-54.09684
2018-05-02 16:50:00+00:00,247.1481,5.17,14.16,47.84626,-54.09684
2018-05-02 17:00:00+00:00,235.0648,5.18,14.08,47.84626,-54.09684
2018-05-02 17:10:00+00:00,226.4114,5.19,14.0,47.84626,-54.09684
2018-05-02 17:20:00+00:00,222.1481,5.18,14.0,47.84626,-54.09684
2018-05-02 17:30:00+00:00,216.5764,5.19,14.0,47.84626,-54.09684
2018-05-02 17:40:00+00:00,211.2382,5.18,14.0,47.84626,-54.09684
2018-05-02 17:50:00+00:00,206.9381,5.19,14.0,47.84626,-54.09684
2018-05-02 18:00:00+00:00,201.8698,5.18,13.92,47.84626,-54.09684
2018-05-02 18:10:00+00:00,201.1681,5.19,13.92,47.84626,-54.09684
2018-05-02 18:20:00+00:00,196.0931,5.13,14.08,47.84626,-54.09684
2018-05-02 18:30:00+00:00,187.6315,5.12,14.0,47.84626,-54.09684
2018-05-02 18:40:00+00:00,187.3514,5.1,14.0,47.84626,-54.09684
2018-05-02 18:50:00+00:00,186.6448,5.12,14.08,47.84626,-54.09684
2018-05-02 19:00:00+00:00,183.0931,5.15,14.0,47.84626,-54.09684
2018-05-02 19:10:00+00:00,186.2782,5.12,13.92,47.84626,-54.09684
2018-05-02 19:20:00+00:00,191.4631,5.1,13.92,47.84626,-54.09684
2018-05-02 19:30:00+00:00,193.3698,5.09,13.92,47.84626,-54.09684
2018-05-02 19:40:00+00:00,194.6415,5.02,13.92,47.84626,-54.09684
2018-05-02 19:50:00+00:00,198.5098,5.03,13.92,47.84626,-54.09684
2018-05-02 20:00:00+00:00,200.6281,5.03,13.76,47.84626,-54.09684
2018-05-02 20:10:00+00:00,204.4081,5.0,13.68,47.84626,-54.09684
2018-05-02 20:20:00+00:00,211.8598,5.04,13.68,47.84626,-54.09684
2018-05-02 20:30:00+00:00,216.0847,5.06,13.6,47.84626,-54.09684
2018-05-02 20:40:00+00:00,218.3065,5.09,13.6,47.84626,-54.09684
2018-05-02 20:50:00+00:00,223.7848,5.1,13.53,47.84626,-54.09684
2018-05-02 21:00:00+00:00,230.3014,5.13,13.44,47.84626,-54.09684
2018-05-02 21:10:00+00:00,234.398,5.18,13.37,47.84626,-54.09684
2018-05-02 21:20:00+00:00,239.4581,5.2,13.37,47.84626,-54.09684
2018-05-02 21:30:00+00:00,247.0797,5.2,13.29,47.84626,-54.09684
2018-05-02 21:40:00+00:00,252.9648,5.2,13.29,47.84626,-54.09684
2018-05-02 21:50:00+00:00,257.7614,5.2,13.29,47.84626,-54.09684
2018-05-02 22:00:00+00:00,265.0247,5.2,13.21,47.84626,-54.09684
2018-05-02 22:10:00+00:00,274.2581,5.2,13.13,47.84626,-54.09684
2018-05-02 22:20:00+00:00,276.0864,5.2,13.13,47.84626,-54.09684
2018-05-02 22:30:00+00:00,280.0447,5.2,13.13,47.84626,-54.09684
2018-05-02 22:40:00+00:00,288.658,5.2,13.13,47.84626,-54.09684
2018-05-02 22:50:00+00:00,296.3281,5.2,13.13,47.84626,-54.09684
2018-05-02 23:00:00+00:00,301.0831,5.2,13.05,47.84626,-54.09684
2018-05-02 23:10:00+00:00,306.2263,5.2,13.05,47.84626,-54.09684
2018-05-02 23:20:00+00:00,314.653,5.2,13.05,47.84626,-54.09684
2018-05-02 23:30:00+00:00,323.9246,5.2,13.05,47.84626,-54.09684
2018-05-02 23:40:00+00:00,328.9846,5.2,13.05,47.84626,-54.09684
2018-05-02 23:50:00+00:00,332.868,5.2,13.13,47.84626,-54.09684
